Schaffen, Belgium

5:41 PM CET on January 21, 2017 (GMT +0100)
Schaffen

Weather History for EBDT - August, 2013

Change the Weather History Date:

Thursday, August 22, 2013

  Actual Average Record
Temperature  
Mean Temperature 65 °F -  
Max Temperature 77 °F 64 °F 81 °F (2015)
Min Temperature 53 °F 54 °F 50 °F (2014)
Growing Degree Days 15 (Base 50)    
Moisture  
Dew Point 55 °F    
Average Humidity 76    
Maximum Humidity 94    
Minimum Humidity 41    
Precipitation  
Precipitation 0.00 in - - ()
Sea Level Pressure  
Sea Level Pressure 30.13 in    
Wind  
Wind Speed 4 mph ()    
Max Wind Speed 13 mph    
Max Gust Speed -    
Visibility 5.5 miles    
Events Fog    
Averages and records for this station are not official NWS values.
T = Trace of Precipitation, MM = Missing Value Source: Averaged Metar Reports

Daily Weather History Graph

Daily Weather History Graph

Search for Another Location

Airport or City:

Trip Planner

Search our weather history database for the weather conditions in past years. The results will help you decide how hot, cold, wet, or windy it might be!

Date:

Astronomy

Aug. 22, 2013 Rise Set
Actual Time 6:37 AM CEST 8:46 PM CEST
Civil Twilight 6:01 AM CEST 9:22 PM CEST
Nautical Twilight 5:16 AM CEST 10:06 PM CEST
Astronomical Twilight 4:25 AM CEST 10:57 PM CEST
Moon 9:00 PM CEST (8/22) 8:25 AM CEST (8/22)
Length of Visible Light 15h 20m
Length of Day
14h 08m
Full, 98% of the Moon is Illuminated
Aug 22
Full
Aug 28
Last Quarter
Sep 5
New
Sep 12
First Quarter
Sep 19
Full

Hourly Weather History & Observations

Time (CEST) Temp. Dew Point Humidity Pressure Visibility Wind Dir Wind Speed Gust Speed Precip Events Conditions
12:25 AM 62.6 °F 51.8 °F 68% 30.18 in 6.2 mi Variable 2.3 mph - N/A   Unknown
1:25 AM 60.8 °F 51.8 °F 72% 30.18 in 6.2 mi Variable 2.3 mph - N/A   Unknown
2:25 AM 57.2 °F 53.6 °F 88% 30.15 in 6.2 mi SSE 4.6 mph - N/A   Unknown
3:25 AM 57.2 °F 53.6 °F 88% 30.15 in 5.6 mi Variable 2.3 mph - N/A   Unknown
3:56 AM 57.2 °F 53.6 °F 88% 30.15 in 4.3 mi SE 3.5 mph - N/A   Unknown
4:25 AM 57.2 °F 53.6 °F 88% 30.15 in 5.0 mi Variable 2.3 mph - N/A   Unknown
4:55 AM 55.4 °F 53.6 °F 94% 30.15 in 4.3 mi Variable 3.5 mph - N/A   Unknown
5:00 AM 56 °F 53 °F 84% 30.16 in 4 mi 2.2 mph - -  
5:08 AM 55.4 °F 53.6 °F 94% 30.15 in 5.0 mi Variable 3.5 mph - N/A   Clear
5:21 AM 55.4 °F 51.8 °F 88% 30.15 in 4.3 mi Variable 2.3 mph - N/A   Partly Cloudy
5:25 AM 55.4 °F 51.8 °F 88% 30.15 in 4.3 mi Variable 3.5 mph - N/A   Partly Cloudy
6:23 AM 53.6 °F 51.8 °F 94% 30.15 in 3.1 mi South 4.6 mph - N/A   Partly Cloudy
6:25 AM 53.6 °F 51.8 °F 94% 30.15 in 3.1 mi South 4.6 mph - N/A   Partly Cloudy
6:49 AM 53.6 °F 51.8 °F 94% 30.15 in 2.5 mi Variable 2.3 mph - N/A Fog Fog
7:22 AM 53.6 °F 51.8 °F 94% 30.15 in 3.1 mi Variable 1.2 mph - N/A   Scattered Clouds
7:25 AM 53.6 °F 51.8 °F 94% 30.15 in 3.1 mi Variable 1.2 mph - N/A   Scattered Clouds
8:25 AM 57.2 °F 53.6 °F 88% 30.15 in 3.7 mi Variable 1.2 mph - N/A   Scattered Clouds
8:59 AM 60.8 °F 55.4 °F 82% 30.15 in 5.0 mi Variable 1.2 mph - N/A   Scattered Clouds
9:04 AM 60.8 °F 55.4 °F 82% 30.15 in 5.0 mi Variable 1.2 mph - N/A   Scattered Clouds
9:25 AM 64.4 °F 55.4 °F 73% 30.15 in 5.0 mi Variable 1.2 mph - N/A   Scattered Clouds
10:25 AM 69.8 °F 50.0 °F 49% 30.15 in 6.2 mi Variable 1.2 mph - N/A   Scattered Clouds
11:00 AM 70 °F 53 °F 45% 30.15 in 14 mi 2.2 mph - -   Scattered Clouds
11:25 AM 73.4 °F 50.0 °F 44% 30.15 in 6.2 mi North 3.5 mph - N/A   Scattered Clouds
12:25 PM 75.2 °F 50.0 °F 41% 30.15 in 6.2 mi NNW 3.5 mph - N/A   Scattered Clouds
1:25 PM 75.2 °F 50.0 °F 41% 30.15 in 6.2 mi North 5.8 mph - N/A   Scattered Clouds
2:25 PM 77.0 °F 53.6 °F 44% 30.12 in 6.2 mi NNW 6.9 mph - N/A   Mostly Cloudy
3:24 PM 75.2 °F 53.6 °F 47% 30.12 in 6.2 mi North 4.6 mph - N/A   Mostly Cloudy
3:25 PM 75.2 °F 55.4 °F 50% 30.12 in 6.2 mi North 5.8 mph - N/A   Mostly Cloudy
4:25 PM 73.4 °F 57.2 °F 57% 30.12 in 6.2 mi NNW 9.2 mph - N/A   Mostly Cloudy
5:00 PM 70 °F 56 °F 53% 30.12 in 19 mi NW 8.9 mph - -   Scattered Clouds
5:25 PM 68.0 °F 57.2 °F 68% 30.12 in 6.2 mi North 12.7 mph - N/A   Mostly Cloudy
6:25 PM 68.0 °F 59.0 °F 73% 30.09 in 6.2 mi North 10.4 mph - N/A   Mostly Cloudy
7:25 PM 66.2 °F 59.0 °F 78% 30.09 in 6.2 mi NNE 9.2 mph - N/A   Mostly Cloudy
7:54 PM 66.2 °F 60.8 °F 83% 30.09 in 4.3 mi North 8.1 mph - N/A   Mostly Cloudy
8:00 PM 66 °F 60 °F 76% 30.09 in 4 mi North 6.7 mph - -   Clear
8:11 PM 66.2 °F 59.0 °F 78% 30.09 in - North 10.4 mph - N/A   Scattered Clouds
8:25 PM 64.4 °F 59.0 °F 83% 30.09 in - North 9.2 mph - N/A   Mostly Cloudy
8:45 PM 64.4 °F 59.0 °F 83% 30.09 in 4.3 mi North 10.4 mph - N/A   Mostly Cloudy
9:04 PM 64.4 °F 59.0 °F 83% 30.09 in 6.2 mi NNE 8.1 mph - N/A   Mostly Cloudy
9:25 PM 62.6 °F 59.0 °F 88% 30.09 in 5.0 mi NNE 5.8 mph - N/A   Mostly Cloudy
9:34 PM 62.6 °F 59.0 °F 88% 30.09 in 4.3 mi North 5.8 mph - N/A   Mostly Cloudy
10:25 PM 62.6 °F 59.0 °F 88% 30.09 in 3.7 mi North 6.9 mph - N/A   Mostly Cloudy
10:36 PM 62.6 °F 59.0 °F 88% 30.09 in - North 6.9 mph - N/A   Mostly Cloudy
11:25 PM 62.6 °F 57.2 °F 82% 30.09 in - Variable 3.5 mph - N/A   Partly Cloudy